[[{"header":{"parameterUnit":"m.s-1","parameterCategory":1,"la1":30.2991,"la2":30.254,"lo1":-89.0895,"lo2":-89.0444,"dy":0.0017,"dx":0.0017,"nx":28,"ny":28,"refTime":"2025-07-03T03:00:00:Z","depth":0,"parameterNumber":2,"parameterNumberName":"U-component_of_WINDS"},"data":[0,0,0,0,0,0,0,0,0,0,0,0,0,0,0,0,0,0,0,0,0,0,0,0,0,0,0,0,0,0,0,0,0,0,0,0,0,0,0,0,0,0,0,0,0,0,0,0,0,0,0,0,0,0,0,0,0,0,4.194,4.1942,0,4.2099,4.2101,4.2102,4.2022,4.2017,4.2013,4.2009,4.2178,4.2186,4.2195,0,0,0,0,0,0,0,0,0,0,0,0,0,4.1576,4.1583,4.194,4.1942,4.1944,4.2098,4.2101,4.2103,4.2022,4.2017,4.2012,4.2007,4.2175,4.2185,4.2195,0,0,0,0,0,0,0,0,0,0,0,0,0,4.1735,4.1586,4.1939,4.1922,4.1922,4.2098,4.2101,4.2103,4.2024,4.2017,4.2011,4.2005,4.2172,4.2184,4.2197,4.2401,0,0,4.2235,4.2241,0,0,0,0,0,0,0,0,4.1726,4.1748,4.1923,4.1924,4.1924,4.2034,4.2034,4.2203,4.2025,4.1985,4.2009,4.2002,4.2136,4.2151,4.2195,4.2408,4.2416,4.2236,4.2244,4.2249,4.2253,0,0,0,0,0,0,0,4.1715,4.1741,4.2003,4.1925,4.1926,4.191,4.1925,4.2066,4.2094,4.1988,4.1983,4.2002,4.2135,4.2183,4.2198,4.2418,4.2236,4.2247,4.2255,4.226,4.2815,4.2822,0,0,0,0,0,0,4.1704,4.1732,4.1998,4.2008,4.1807,4.1921,4.1939,4.2005,4.2092,4.2099,4.2008,4.1998,4.2164,4.2183,4.2204,4.2453,4.2249,4.2261,4.2268,4.2808,4.2816,4.2824,0,0,0,0,0,0,4.1696,4.1728,4.1991,4.1869,4.1901,4.1934,4.201,4.2012,4.2059,4.2107,4.2112,4.2051,4.216,4.2186,4.2353,4.2457,4.2267,4.2278,4.2799,4.281,4.282,4.295,0,0,0,0,0,0,4.1686,4.1726,4.1801,4.1871,4.1908,4.2136,4.2016,4.2019,4.208,4.2069,4.2149,4.2156,4.2157,4.2335,4.2366,4.2471,4.2288,4.279,4.2804,4.2817,4.2936,4.2963,4.2987,0,0,0,0,0,4.1673,4.1831,4.1805,4.1838,4.2002,4.2142,4.2163,4.216,4.2089,4.2167,4.2199,4.2153,4.2441,4.2353,4.2387,4.2498,4.2784,4.28,4.2816,4.2925,4.2958,4.2986,0,0,0,0,0,0,4.1773,4.1839,4.1812,4.1996,4.2064,4.2128,4.2225,4.2194,4.2285,4.2271,4.2265,4.2283,4.2458,4.2494,4.2395,4.2703,4.2602,4.2626,4.2673,4.2705,4.273,4.2718,4.2299,0,0,0,0,0,4.1816,4.1922,4.1975,4.2133,4.2168,4.2192,4.2252,4.2244,4.2315,4.2344,4.2387,4.246,4.2567,4.2638,4.2738,4.2941,4.296,4.3035,4.306,4.308,4.3102,4.3218,4.3253,4.2877,4.2877,4.2877,0,0,4.1906,4.1956,4.2023,4.2154,4.2206,4.2319,4.2216,4.2338,4.2424,4.2363,4.2524,4.256,4.2641,4.2828,4.2913,4.2864,4.321,4.3101,4.3117,4.3127,4.3238,4.3273,4.3305,4.2888,4.2886,4.2885,0,0,4.213,4.2176,4.2315,4.237,4.245,4.2465,4.2499,4.2569,4.259,4.2752,4.271,4.2813,4.2996,4.3057,4.3112,4.3366,4.333,4.3399,4.3532,4.3645,4.3675,4.3701,4.3796,4.383,4.342,4.342,4.3421,0,4.2233,4.2399,4.2391,4.2519,4.258,4.253,4.2674,4.2728,4.2837,4.2883,4.2825,4.3058,4.3109,4.3313,4.3375,4.342,4.3462,4.339,4.367,4.3697,4.3721,4.3812,4.3847,4.3429,4.3428,4.3427,4.3426,0,4.2525,4.2642,4.2745,4.2852,4.2925,4.306,4.3076,4.3151,4.3139,4.3162,4.3331,4.339,4.3505,4.3552,4.354,4.3757,4.3725,4.367,4.3568,4.3766,4.3851,4.3885,4.344,4.3437,4.3435,4.3433,0,0,4.2813,4.2917,4.2956,4.3006,4.3093,4.3185,4.3321,4.3432,4.3499,4.3578,4.3694,4.3853,4.3804,4.3867,4.3862,4.3961,4.4165,4.3895,4.3897,4.3946,4.4414,4.4457,4.4497,4.4141,4.4148,4.4153,4.4409,0,4.3046,4.328,4.328,4.3498,4.3609,4.3566,4.3685,4.3754,4.378,4.3881,4.391,4.4025,4.3949,4.3988,4.4083,4.412,4.426,4.4101,4.4254,4.426,4.4237,4.4541,4.4586,4.4824,4.4441,4.4447,4.4451,0,4.3347,4.3437,4.3667,4.3743,4.3789,4.3896,4.4001,4.4096,4.4176,4.4188,4.4262,4.4243,4.4386,4.428,4.4479,4.4372,4.4435,4.4463,4.4472,4.4488,4.4369,4.4569,4.4899,4.4937,4.4503,4.4499,4.4495,0,4.354,4.3718,4.388,4.3924,4.4015,4.4093,4.4135,4.4207,4.4277,4.437,4.4416,4.4524,4.4585,4.4672,4.4685,4.4605,4.4888,4.4781,4.4907,4.4907,4.4969,4.4965,4.5318,4.5005,4.5004,4.5004,4.5003,0,4.3802,4.3945,4.3969,4.4068,4.423,4.423,4.4391,4.4427,4.4493,4.4602,4.4571,4.4676,4.4685,4.4794,4.4806,4.4973,4.4999,4.5017,4.5019,4.5022,4.502,4.5064,4.5049,4.5013,4.5011,4.5009,4.5008,0,4.4044,4.4065,4.424,4.4313,4.4335,4.4452,4.4516,4.4614,4.4639,4.4778,4.4811,4.4851,4.4978,4.4999,4.5148,4.5157,4.5358,4.5341,4.5331,4.533,4.5455,4.5445,4.5851,4.5906,4.5554,4.5557,4.556,0,4.4211,4.432,4.4407,4.4477,4.4524,4.4637,4.4709,4.4715,4.479,4.4892,4.498,4.5103,4.5202,4.5408,4.5452,4.5568,4.5556,4.569,4.5573,4.5574,4.5563,4.5558,4.5571,4.5714,4.5717,4.572,4.5723,0,4.4506,4.4512,4.4614,4.4723,4.4809,4.4894,4.4975,4.5036,4.5053,4.5141,4.527,4.5347,4.5501,4.5626,4.5742,4.5789,4.5762,4.576,4.5796,4.58,4.5792,4.5803,4.5396,4.575,4.5748,4.5746,4.5744,4.5743,4.4718,4.4816,4.4894,4.5011,4.5073,4.5151,4.5248,4.5286,4.5393,4.5517,4.5515,4.5659,4.5741,4.5894,4.5949,4.6064,4.6021,4.6072,4.6086,4.6099,4.6113,4.5771,4.6085,4.6084,4.6083,4.6083,4.6082,0,4.5016,4.5064,4.5172,4.5287,4.5381,4.5345,4.5435,4.5516,4.5642,4.572,4.582,4.5971,4.6094,4.6149,4.6271,4.6353,4.6344,4.6385,4.638,4.6393,4.6142,4.61,4.6391,4.6391,4.6391,4.639,4.639,4.639,4.5181,4.5346,4.5363,4.5561,4.5609,4.5748,4.5803,4.5877,4.594,4.611,4.6212,4.6246,4.6318,4.6445,4.6558,4.6571,4.662,4.6668,4.6676,4.6441,4.641,4.638,4.6341,4.6677,4.6678,4.6918,4.692,4.6922]},{"header":{"parameterUnit":"m.s-1","parameterCategory":1,"la1":30.2991,"la2":30.254,"lo1":-89.0895,"lo2":-89.0444,"dy":0.0017,"dx":0.0017,"nx":28,"ny":28,"refTime":"2025-07-03T03:00:00:Z","depth":0,"parameterNumber":3,"parameterNumberName":"V-component_of_WINDS"},"data":[0,0,0,0,0,0,0,0,0,0,0,0,0,0,0,0,0,0,0,0,0,0,0,0,0,0,0,0,0,0,0,0,0,0,0,0,0,0,0,0,0,0,0,0,0,0,0,0,0,0,0,0,0,0,0,0,0,0,0.1339,0.1342,0,0.157,0.1573,0.1575,0.164,0.1638,0.1637,0.1636,0.1879,0.1887,0.1895,0,0,0,0,0,0,0,0,0,0,0,0,0,0.0958,0.0965,0.1339,0.1342,0.1345,0.1569,0.1573,0.1576,0.164,0.1638,0.1637,0.1635,0.1877,0.1886,0.1895,0,0,0,0,0,0,0,0,0,0,0,0,0,0.115,0.0967,0.1339,0.1404,0.1412,0.1569,0.1573,0.1577,0.164,0.1638,0.1636,0.1634,0.1874,0.1885,0.1897,0.2008,0,0,0.1932,0.1937,0,0,0,0,0,0,0,0,0.1139,0.1164,0.1391,0.1399,0.1409,0.1574,0.1528,0.1722,0.1641,0.1554,0.1636,0.1633,0.178,0.1799,0.1847,0.2019,0.203,0.1933,0.194,0.1945,0.1948,0,0,0,0,0,0,0,0.1125,0.1154,0.1431,0.1394,0.1405,0.1423,0.1448,0.1565,0.1675,0.1561,0.1566,0.1592,0.1784,0.1836,0.1853,0.2033,0.1933,0.1943,0.195,0.1955,0.2304,0.2307,0,0,0,0,0,0,0.11,0.1143,0.1423,0.1438,0.1266,0.1431,0.1459,0.1523,0.1674,0.1695,0.1594,0.1594,0.1817,0.184,0.1862,0.2,0.1945,0.1956,0.1962,0.2302,0.2305,0.2307,0,0,0,0,0,0,0.1092,0.1125,0.1414,0.1292,0.133,0.144,0.1511,0.1529,0.158,0.1699,0.1719,0.1626,0.1816,0.1846,0.197,0.201,0.1961,0.1972,0.2299,0.2303,0.2306,0.2278,0,0,0,0,0,0,0.1081,0.1121,0.1164,0.1292,0.1336,0.1517,0.1513,0.1535,0.1599,0.1602,0.1734,0.1754,0.1817,0.1952,0.1981,0.2025,0.1981,0.2296,0.2301,0.2305,0.2276,0.2281,0.2284,0,0,0,0,0,0.1067,0.115,0.1166,0.12,0.1392,0.1519,0.1545,0.1613,0.1602,0.1646,0.1721,0.175,0.2,0.1964,0.1998,0.2045,0.2294,0.23,0.2305,0.2275,0.228,0.2284,0,0,0,0,0,0,0.1028,0.1168,0.1188,0.1314,0.1403,0.153,0.1588,0.1617,0.1714,0.1713,0.1795,0.1825,0.1942,0.2006,0.1964,0.2159,0.2148,0.216,0.2113,0.2119,0.2123,0.2106,0.199,0,0,0,0,0,0.1033,0.1123,0.1242,0.1342,0.1385,0.1478,0.1537,0.1581,0.1678,0.1717,0.1802,0.1897,0.1997,0.2061,0.216,0.2284,0.2314,0.2333,0.2337,0.234,0.235,0.2418,0.2428,0.2325,0.2325,0.2325,0,0,0.1048,0.1135,0.1188,0.1336,0.1411,0.1503,0.1511,0.1609,0.1678,0.1733,0.1855,0.1919,0.2031,0.2154,0.2213,0.2211,0.2384,0.2346,0.2348,0.2357,0.2424,0.2434,0.2442,0.2328,0.2328,0.2327,0,0,0.112,0.1195,0.1285,0.1358,0.1469,0.153,0.1551,0.1671,0.1716,0.1837,0.1879,0.1963,0.2134,0.221,0.2272,0.2365,0.2395,0.2395,0.2417,0.2482,0.249,0.2498,0.253,0.2541,0.2405,0.2405,0.2405,0,0.1125,0.1263,0.1329,0.1424,0.1487,0.1536,0.1628,0.1696,0.1835,0.1878,0.1872,0.2084,0.2163,0.2304,0.2325,0.2374,0.2401,0.2382,0.2483,0.2491,0.2499,0.2531,0.2544,0.2404,0.2404,0.2404,0.2404,0,0.1262,0.1357,0.1417,0.1545,0.1615,0.1708,0.1788,0.1851,0.1887,0.1948,0.207,0.2164,0.2281,0.2317,0.2356,0.2463,0.2458,0.2466,0.2457,0.2507,0.2539,0.2552,0.2403,0.2403,0.2403,0.2403,0,0,0.1322,0.148,0.1501,0.1558,0.1681,0.1757,0.185,0.1961,0.2013,0.2105,0.2186,0.2326,0.2333,0.2402,0.2449,0.2505,0.2571,0.2507,0.2511,0.2515,0.2693,0.2686,0.2699,0.259,0.2592,0.2594,0.2683,0,0.141,0.1577,0.1636,0.1775,0.1863,0.1907,0.1989,0.2073,0.2131,0.2215,0.228,0.2376,0.2379,0.2421,0.2478,0.2551,0.2608,0.2545,0.2667,0.267,0.2638,0.2716,0.271,0.279,0.2696,0.2698,0.27,0,0.1537,0.1625,0.1771,0.1879,0.1918,0.199,0.2094,0.2173,0.2269,0.2306,0.238,0.2421,0.2521,0.2502,0.264,0.2596,0.2648,0.269,0.2695,0.2711,0.2689,0.2734,0.2817,0.2829,0.272,0.2718,0.2717,0,0.1564,0.1721,0.1827,0.1875,0.2004,0.2053,0.2109,0.2202,0.2263,0.2354,0.2394,0.2496,0.2553,0.2631,0.2698,0.2679,0.2829,0.2817,0.2864,0.2862,0.2896,0.2893,0.2989,0.2928,0.2928,0.2927,0.2927,0,0.1657,0.1745,0.1841,0.1907,0.2005,0.2071,0.2168,0.2227,0.2308,0.2386,0.2432,0.2504,0.2588,0.2671,0.2725,0.2829,0.2855,0.2888,0.2902,0.2885,0.2881,0.2922,0.2919,0.2931,0.293,0.2929,0.2929,0,0.1707,0.1775,0.1894,0.2003,0.2032,0.21,0.2195,0.226,0.2317,0.2415,0.2442,0.2533,0.2632,0.2706,0.2837,0.2872,0.2984,0.2997,0.2951,0.2958,0.2999,0.2994,0.3127,0.3147,0.3071,0.3071,0.3072,0,0.1762,0.183,0.1944,0.1998,0.2053,0.214,0.22,0.2267,0.2329,0.2439,0.2491,0.2593,0.2678,0.2835,0.2914,0.3013,0.3029,0.3068,0.3045,0.3024,0.303,0.3025,0.3031,0.3073,0.3073,0.3074,0.3074,0,0.1853,0.1882,0.1966,0.2061,0.2131,0.2211,0.2291,0.2333,0.2413,0.248,0.2581,0.2646,0.2776,0.2876,0.2981,0.3041,0.3071,0.3079,0.3096,0.308,0.305,0.3066,0.296,0.3077,0.3077,0.3077,0.3077,0.3076,0.1908,0.1968,0.2057,0.2149,0.2214,0.2286,0.2352,0.2414,0.2498,0.2607,0.2641,0.2745,0.2835,0.2979,0.3038,0.312,0.312,0.3143,0.3149,0.3154,0.3153,0.3035,0.314,0.314,0.314,0.314,0.314,0,0.2001,0.2058,0.2141,0.2249,0.232,0.2337,0.2425,0.2485,0.2574,0.2654,0.2735,0.2849,0.2945,0.3028,0.3127,0.3177,0.3193,0.3201,0.3199,0.3211,0.3148,0.3124,0.3186,0.3186,0.3186,0.3186,0.3186,0.3186,0.2058,0.216,0.2198,0.2332,0.239,0.2489,0.2537,0.2604,0.2667,0.2791,0.2869,0.2921,0.3002,0.3107,0.3195,0.3217,0.3252,0.3256,0.3282,0.3222,0.3216,0.3211,0.3189,0.3263,0.3263,0.3338,0.3339,0.3339]}]]